Location: Be?chatów
(51.3665°N, 19.3745°E)
Time: 18:07:04
(UTC+00:00)

USA 234 - Pass Details

Date: 19 May 2025
Orbit: 1097 x 1111 km, 123.0° (Epoch: 19 June)

Event Time Altitude Azimuth Distance (km) Brightness Sun altitude
Rises 19:02:34 0° 58° (ENE) 3,927 6.0 -4.4°
Reaches altitude 10° 19:05:15 10° 66° (ENE) 2,969 5.3 -4.8°
Maximum altitude 19:11:21 40° 134° (SE) 1,585 3.7 -5.5°
Drops below altitude 10° 19:17:25 10° 202° (SSW) 2,964 5.3 -6.2°
Sets 19:20:05 0° 210° (SSW) 3,921 6.0 -6.5°
